Regional Weather Roundup
Issued by NWS

Home | Current Version | Previous Version | Text Only | Print | Product List | Glossary Off
Versions: 1 2 3 4 5 6 7 8 9 10 11 12 13 14 15 16 17 18 19 20 21 22 23 24 25 26 27

000
ASUS45 KSLC 181110
RWRUT

UTAH REGIONAL WEATHER ROUNDUP
NATIONAL WEATHER SERVICE SALT LAKE CITY UT
400 AM MST SAT NOV 18 2017

UTZ001>011-023>025-181200-

NORTHERN UTAH

CITY           SKY/WX    TMP DP  RH WIND       PRES   REMARKS
BRIGHAM CITY   MOCLDY    30  22  72 SW3       30.41R
HILL AFB       CLEAR     27  19  71 E10       30.39R WCI  17
LOGAN          MOCLDY    29  21  72 CALM      30.39R
OGDEN          CLEAR     26  20  77 S7        30.39R WCI  18
SALT LAKE CITY PTCLDY    32  24  72 SE7       30.40S WCI  26
TOOELE VALLEY  CLEAR     27  23  86 S7        30.42R WCI  19
WENDOVER       PTCLDY    29  17  61 E5        30.41R WCI  24
HEBER CITY       N/A     21  18  86 S3        30.36R
WEST JORDAN    CLOUDY    31  26  83 CALM      30.40S

$$

UTZ011>015-024>027-181200-

CENTRAL/NORTHEAST UTAH

CITY           SKY/WX    TMP DP  RH WIND       PRES   REMARKS
PROVO AIRPORT  MOCLDY    24  20  84 SE7       30.42R WCI  16
MOAB/CANYONLAN CLEAR     28  12  51 NE3       30.34R
DELTA          MOCLDY    19  18  93 NE3       30.41S
PRICE          MOCLDY    26  14  60 CALM      30.32R
RICHFIELD      CLEAR     19  19 100 CALM      30.43R
ROOSEVELT      CLEAR     23  14  68 W6        30.34R WCI  16
VERNAL         CLEAR     19  10  68 NW3       30.32R

$$

UTZ013>016-019>022-027-181200-

SOUTHERN UTAH

CITY           SKY/WX    TMP DP  RH WIND       PRES   REMARKS
BRYCE CANYON   CLOUDY    11   6  81 W9        30.31S WCI  -2
CEDAR CITY     MOCLDY    21  17  84 N9        30.33R WCI  11
MILFORD        MOCLDY    18  15  88 N5        30.39S WCI  11
ST GEORGE      MOSUNNY   45  14  28 NE23G30   30.32R
HANKSVILLE     CLEAR     25  10  54 SE3       30.39R
KANAB          CLEAR     32  12  43 N13       30.35S WCI  22
BLANDING         N/A     28  10  45 CALM      30.37R

$$

REGIONAL REPORTS     COLORADO/ARIZONA

CITY           SKY/WX    TMP DP  RH WIND       PRES   REMARKS
CRAIG, CO      CLOUDY    13   9  84 SE3       30.31R
GRAND JUNCTION CLEAR     27  17  66 NW3       30.33R
RIFLE, CO      CLOUDY    23  19  85 W7        30.33R WCI  15
MONTROSE, CO   CLEAR     25  19  78 SE9       30.35R WCI  15
CORTEZ, CO     CLEAR     28  14  55 NW9       30.26S WCI  19
COLORADO CITY    N/A     36  12  38 NE14      30.33R WCI  27
PAGE, AZ       PTCLDY    40  17  39 CALM      30.31R
GRAND CANYON   CLEAR     31  19  61 NE12      30.28R WCI  22
KINGMAN, AZ    CLEAR     43  20  39 NE15      30.24R
FLAGSTAFF, AZ  CLEAR     29  19  66 E12       30.27R WCI  19

$$

REGIONAL REPORTS    NEVADA/IDAHO/WYOMING

CITY           SKY/WX    TMP DP  RH WIND       PRES   REMARKS
LAS VEGAS, NV  CLEAR     52  14  22 N17G29    30.29R
ELY, NY        CLOUDY     8   5  87 S7        30.38S WCI  -3
ELKO, NV       MOCLDY    21  16  81 N3        30.38F
POCATELLO, ID  CLEAR     28  21  75 SW14      30.36S WCI  17
BURLEY, ID     CLEAR     28  20  71 SW12      30.37R WCI  18
FORT BRIDGER,    N/A     16  12  86 SW9G16    30.31S WCI   4
EVANSTON, WY   CLOUDY    12   9  87 SW9       30.30R WCI   0
ROCK SPRINGS,  CLOUDY    17  12  80 W24       30.25R WCI  -1

$$




USA.gov is the U.S. government's official web portal to all federal, state and local government web resources and services.